Content
SEND FEEDBACK

Daily
Averages
Monthly
Summary
United States of America

CANEADEA, NEW YORK


Home > North America > United States > New York
Elevation: 1500 feet     Latitude: 42 22N     Longitude: 078 12W

WEATHER
 
SELECT A DAY
Number of Records: 63,291;   Date Range: 1/2/95 - 11/26/14
 
SHARE

PRINT THIS DATA

[ ← Previous Day ]
WEATHER ALMANAC - JANUARY 31, 2013
[ Next Day → ]
[ °C ]   °F
Weather ElementAverageHighLow
Temperature23.8 °F46.4 °F (12:35 am)15.8 °F (11:55 pm)
Dewpoint19.5 °F42.8 °F (12:35 am)10.4 °F (4:55 pm)
Humidity84.1 %100 % (1:15 am)68 % (11:35 am)
Barometer29.39 in29.61 in (10:15 pm)29.09 in (12:55 am)
Wind Speed12.7 mph25.3 mph (7:15 am)
Wind Gust41.4 mph (4:35 am)
Weather ElementAverage
Visibility2.6 mi
Wind DirectionWSW (259.9 °)

Weather ElementTotal
Precipitation---
Heating Degree Days33.9 (Base 65)
Averaged from 70 records on January 31, 2013
WEATHER CONDITIONS BREAKOUT
WIND DIRECTION BREAKOUT
WEATHER BY HOUR - JANUARY 31, 2013
[ °C ]   °F
Local TimeTemperatureDewpointHumidityBarometerVisibilityWind DirectionWind SpeedGust SpeedPrecipitationEventsConditions
12:35 AM46.4 °F42.8 °F87 %29.11 in7.0 miWSW (240°)13.8 mph29.9 mphRainLight Rain
12:55 AM44.6 °F42.8 °F93 %29.09 in7.0 miWSW (240°)12.7 mph21.9 mphRainRain
1:15 AM42.8 °F42.8 °F100 %29.09 in7.0 miWSW (250°)11.5 mph18.4 mphRainRain
1:35 AM39.2 °F37.4 °F93 %29.11 in5.0 miWNW (300°)15.0 mph29.9 mphRainRain
1:55 AM33.8 °F33.8 °F100 %29.09 in4.0 miWNW (290°)11.5 mph24.2 mphRainRain
2:15 AM33.8 °F32.0 °F93 %29.11 in7.0 miWest (260°)12.7 mph25.3 mphOvercast
2:35 AM32.0 °F32.0 °F100 %29.12 in5.0 miWest (260°)9.2 mph23.0 mphSnowLight Snow
2:55 AM32.0 °F32.0 °F100 %29.14 in5.0 miWest (260°)15.0 mph28.8 mphSnowLight Snow
3:15 AM32.0 °F32.0 °F100 %29.10 in2.5 miWSW (250°)16.1 mph28.8 mphSnowLight Snow
3:35 AM32.0 °F30.2 °F93 %29.12 in4.0 miWSW (250°)11.5 mph27.6 mphSnowLight Snow
3:55 AM32.0 °F30.2 °F93 %29.12 in2.5 miWest (260°)11.5 mph27.6 mphSnowLight Snow
4:15 AM32.0 °F30.2 °F93 %29.14 in3.0 miWest (260°)11.5 mph27.6 mphSnowLight Snow
4:35 AM30.2 °F28.4 °F93 %29.15 in0.8 miWest (280°)18.4 mph41.4 mphSnowLight Snow
4:55 AM30.2 °F26.6 °F86 %29.17 in7.0 miWest (270°)16.1 mph32.2 mphOvercast
5:15 AM28.4 °F23.0 °F80 %29.18 in10.0 miWest (280°)20.7 mph36.8 mphOvercast
5:35 AM28.4 °F23.0 °F80 %29.20 in10.0 miWest (270°)16.1 mph38.0 mphOvercast
5:55 AM26.6 °F21.2 °F80 %29.22 in7.0 miWest (270°)13.8 mph29.9 mphSnowLight Snow
6:15 AM26.6 °F21.2 °F80 %29.23 in3.0 miWest (260°)13.8 mph35.7 mphSnowLight Snow
6:35 AM26.6 °F21.2 °F80 %29.25 in4.0 miWest (270°)12.7 mph34.5 mphSnowLight Snow
7:15 AM26.6 °F19.4 °F74 %29.26 in5.0 miWest (260°)25.3 mph36.8 mphSnowLight Snow
7:35 AM26.6 °F19.4 °F74 %29.28 in7.0 miWSW (250°)16.1 mph34.5 mphSnowLight Snow
7:55 AM23.0 °F23.0 °F100 %29.29 in0.2 miWest (260°)13.8 mph23.0 mphSnowHeavy Snow
8:15 AM23.0 °F23.0 °F100 %29.30 in0.2 miWest (260°)11.5 mph25.3 mphSnowHeavy Snow
8:35 AM23.0 °F21.2 °F93 %29.31 in0.2 miWest (270°)17.3 mph29.9 mphSnowSnow
8:55 AM23.0 °F21.2 °F93 %29.33 in0.2 miWest (260°)9.2 mph23.0 mphSnowHeavy Snow
9:15 AM23.0 °F21.2 °F93 %29.33 in0.5 miWest (270°)13.8 mph25.3 mphSnowSnow
9:35 AM24.8 °F19.4 °F80 %29.35 in1.2 miWest (270°)18.4 mph35.7 mphSnowLight Snow
9:55 AM23.0 °F17.6 °F80 %29.36 in1.2 miWest (270°)15.0 mph33.4 mphSnowLight Snow
10:15 AM23.0 °F21.2 °F93 %29.37 in0.2 miWest (270°)13.8 mph27.6 mphSnowHeavy Snow
10:35 AM21.2 °F19.4 °F93 %29.38 in0.2 miWSW (250°)9.2 mph25.3 mphSnowHeavy Snow
10:55 AM23.0 °F19.4 °F86 %29.38 in0.2 miWest (260°)13.8 mph24.2 mphSnowLight Snow
11:15 AM23.0 °F15.8 °F74 %29.38 in2.5 miWest (260°)19.6 mph38.0 mphSnowLight Snow
11:35 AM23.0 °F14.0 °F68 %29.39 in2.0 miWest (260°)17.3 mph34.5 mphSnowLight Snow
11:55 AM23.0 °F15.8 °F74 %29.40 in1.8 miWSW (240°)15.0 mph29.9 mphSnowLight Snow
12:15 PM23.0 °F17.6 °F80 %29.41 in0.5 miWest (260°)16.1 mph32.2 mphSnowLight Snow
12:35 PM23.0 °F14.0 °F68 %29.41 in0.8 miWest (260°)13.8 mph32.2 mphSnowLight Snow
12:55 PM21.2 °F17.6 °F86 %29.42 in0.2 miWest (270°)11.5 mph32.2 mphSnowHeavy Snow
1:15 PM21.2 °F15.8 °F80 %29.42 in0.8 miWSW (250°)13.8 mph27.6 mphSnowLight Snow
1:35 PM21.2 °F15.8 °F80 %29.44 in0.5 miWest (260°)8.1 mph33.4 mphSnowSnow
1:55 PM21.2 °F17.6 °F86 %29.44 in0.2 miWSW (240°)8.1 mph31.1 mphSnowSnow
2:15 PM21.2 °F15.8 °F80 %29.45 in1.2 miWest (270°)11.5 mph27.6 mphSnowLight Snow
2:35 PM21.2 °F17.6 °F86 %29.46 in0.8 miWSW (250°)12.7 mph23.0 mphSnowLight Snow
2:55 PM21.2 °F15.8 °F80 %29.47 in1.5 miWSW (250°)10.4 mph26.5 mphSnowLight Snow
3:15 PM21.2 °F14.0 °F74 %29.48 in2.5 miWSW (250°)15.0 mph24.2 mphSnowLight Snow
3:35 PM19.4 °F12.2 °F74 %29.48 in0.8 miWest (270°)11.5 mph34.5 mphSnowLight Snow
3:55 PM19.4 °F14.0 °F80 %29.50 in1.0 miWest (260°)9.2 mph28.8 mphSnowLight Snow
4:15 PM19.4 °F12.2 °F74 %29.51 in1.5 miWest (260°)11.5 mph31.1 mphSnowLight Snow
4:35 PM19.4 °F14.0 °F80 %29.52 in0.8 miWest (260°)9.2 mph20.7 mphSnowLight Snow
4:55 PM19.4 °F10.4 °F68 %29.53 in1.5 miWest (270°)10.4 mph27.6 mphSnowLight Snow
5:15 PM19.4 °F10.4 °F68 %29.54 in2.5 miWest (260°)11.5 mph31.1 mphSnowLight Snow
5:35 PM17.6 °F12.2 °F79 %29.55 in1.2 miWSW (250°)12.7 mph26.5 mphSnowLight Snow
5:55 PM17.6 °F12.2 °F79 %29.56 in2.0 miWSW (250°)10.4 mph21.9 mphSnowLight Snow
6:15 PM17.6 °F10.4 °F73 %29.56 in5.0 miWSW (250°)17.3 mph24.2 mphSnowLight Snow
6:35 PM17.6 °F12.2 °F79 %29.58 in4.0 miWSW (250°)12.7 mph18.4 mphSnowLight Snow
6:55 PM17.6 °F12.2 °F79 %29.58 in1.5 miWest (260°)15.0 mph24.2 mphSnowLight Snow
7:15 PM17.6 °F12.2 °F79 %29.58 in3.0 miWest (260°)11.5 mph24.2 mphSnowLight Snow
7:35 PM17.6 °F12.2 °F79 %29.59 in2.0 miWSW (250°)12.7 mph19.6 mphSnowLight Snow
7:55 PM17.6 °F12.2 °F79 %29.59 in2.0 miWSW (250°)10.4 mph18.4 mphSnowLight Snow
8:15 PM17.6 °F12.2 °F79 %29.59 in2.5 miWest (260°)9.2 mph20.7 mphSnowLight Snow
8:35 PM17.6 °F12.2 °F79 %29.59 in2.0 miWest (260°)10.4 mph18.4 mphSnowLight Snow
8:55 PM17.6 °F14.0 °F86 %29.60 in1.8 miWSW (250°)6.9 mph21.9 mphSnowLight Snow
9:15 PM17.6 °F14.0 °F86 %29.60 in1.2 miWSW (240°)8.1 mph16.1 mphSnowLight Snow
9:35 PM17.6 °F14.0 °F86 %29.60 in1.2 miWSW (250°)9.2 mphSnowLight Snow
9:55 PM17.6 °F14.0 °F86 %29.60 in1.2 miWest (260°)11.5 mph23.0 mphSnowLight Snow
10:15 PM17.6 °F14.0 °F86 %29.61 in1.0 miWSW (250°)5.8 mphSnowLight Snow
10:35 PM17.6 °F14.0 °F86 %29.61 in3.0 miWest (260°)12.7 mph20.7 mphSnowLight Snow
10:55 PM17.6 °F14.0 °F86 %29.61 in0.5 miWest (260°)5.8 mph16.1 mphSnowSnow
11:15 PM17.6 °F14.0 °F86 %29.61 in1.2 miWest (270°)6.9 mph19.6 mphSnowLight Snow
11:35 PM17.6 °F14.0 °F86 %29.61 in0.5 miWest (270°)10.4 mph17.3 mphSnowSnow
11:55 PM15.8 °F12.2 °F86 %29.61 in3.0 miWest (270°)9.2 mph20.7 mphSnowLight Snow
Hourly data recorded from KOLE, located miles away from Caneadea, New York







STORIES FROM OUR PARTNERS